Total_Precipitation_Accumulation
0.45 0.59 0.60 0.46 0.42 0.42 0.40 0.46 0.64 0.65 0.69 0.82 0.97 1.04 0.96 0.95 0.88 0.78 0.61 0.50 0.42 0.36 0.35 0.36 0.37 0.39 0.44 0.48 0.53 0.65 0.76 0.80 0.87 1.02 1.21 1.45 1.66 1.87
0.48 0.55 0.66 0.66 0.59 0.55 0.53 0.57 0.70 0.72 0.76 0.82 0.98 1.01 0.90 0.72 0.69 0.72 0.61 0.56 0.47 0.38 0.32 0.32 0.34 0.34 0.33 0.35 0.35 0.35 0.39 0.44 0.50 0.58 0.67 0.80 0.98 1.26
0.66 0.65 0.65 0.75 0.83 0.76 0.71 0.71 0.75 0.82 0.84 0.83 0.96 1.00 0.88 0.69 0.62 0.65 0.64 0.64 0.52 0.48 0.39 0.34 0.33 0.33 0.33 0.34 0.35 0.33 0.31 0.31 0.32 0.35 0.40 0.45 0.51 0.58
0.80 0.93 0.93 0.86 0.85 0.81 0.79 0.80 0.86 1.00 1.01 0.96 0.99 1.05 0.98 0.86 0.76 0.67 0.56 0.56 0.59 0.61 0.52 0.43 0.37 0.35 0.33 0.32 0.32 0.32 0.32 0.31 0.29 0.26 0.26 0.28 0.30 0.34
0.67 0.92 1.11 1.27 1.19 0.99 0.88 0.83 0.89 1.00 1.13 1.08 1.05 1.19 1.18 1.07 0.92 0.73 0.59 0.56 0.50 0.53 0.53 0.48 0.41 0.38 0.35 0.33 0.31 0.30 0.27 0.26 0.25 0.25 0.22 0.21 0.21 0.22
0.63 0.71 0.82 1.03 1.21 1.25 1.11 0.96 0.92 1.00 1.11 1.13 1.21 1.43 1.45 1.30 1.07 0.86 0.75 0.64 0.55 0.45 0.46 0.47 0.44 0.39 0.36 0.34 0.31 0.28 0.27 0.25 0.25 0.25 0.24 0.22 0.20 0.19
0.69 0.67 0.62 0.68 0.82 0.98 1.06 1.14 1.11 1.06 1.10 1.17 1.38 1.78 1.79 1.54 1.17 0.96 0.90 0.84 0.71 0.58 0.52 0.43 0.41 0.38 0.36 0.38 0.38 0.35 0.30 0.27 0.24 0.23 0.24 0.23 0.22 0.22
0.83 0.76 0.65 0.58 0.58 0.66 0.77 0.90 1.05 1.09 1.09 1.15 1.34 1.63 1.79 1.67 1.41 1.20 0.99 0.85 0.76 0.68 0.62 0.54 0.47 0.43 0.37 0.33 0.37 0.37 0.35 0.31 0.28 0.24 0.22 0.21 0.22 0.21
0.94 0.94 0.73 0.55 0.58 0.60 0.66 0.68 0.73 0.82 0.93 1.02 1.16 1.37 1.66 1.78 1.61 1.23 1.07 0.97 0.79 0.69 0.68 0.64 0.59 0.53 0.44 0.40 0.43 0.36 0.36 0.35 0.30 0.27 0.24 0.22 0.20 0.20
0.81 0.81 0.76 0.63 0.59 0.60 0.63 0.61 0.59 0.58 0.63 0.72 0.85 1.07 1.34 1.66 1.81 1.56 1.37 1.21 1.00 0.85 0.72 0.67 0.67 0.60 0.51 0.45 0.49 0.43 0.36 0.35 0.34 0.30 0.26 0.25 0.23 0.21
0.68 0.71 0.73 0.66 0.59 0.48 0.50 0.51 0.51 0.50 0.49 0.53 0.62 0.79 1.04 1.34 1.68 1.80 1.51 1.18 1.03 0.86 0.73 0.65 0.60 0.64 0.62 0.51 0.49 0.52 0.43 0.38 0.36 0.35 0.31 0.28 0.26 0.25
0.83 0.85 0.79 0.69 0.59 0.44 0.44 0.49 0.48 0.45 0.49 0.50 0.50 0.57 0.70 0.94 1.29 1.47 1.48 1.20 0.96 0.84 0.63 0.56 0.54 0.57 0.61 0.54 0.43 0.42 0.42 0.43 0.41 0.37 0.36 0.34 0.34 0.25
0.87 0.94 0.89 0.74 0.54 0.42 0.38 0.39 0.37 0.40 0.47 0.51 0.52 0.56 0.69 0.86 1.02 1.24 1.37 1.28 1.03 0.76 0.60 0.57 0.49 0.50 0.51 0.47 0.44 0.40 0.38 0.37 0.37 0.39 0.39 0.40 0.42 0.35
0.79 0.93 0.95 0.78 0.58 0.43 0.34 0.30 0.28 0.28 0.34 0.40 0.43 0.45 0.53 0.66 0.84 1.09 1.31 1.32 1.18 0.93 0.76 0.72 0.64 0.54 0.48 0.41 0.37 0.38 0.38 0.37 0.36 0.35 0.36 0.46 0.46 0.47
0.66 0.89 0.98 0.86 0.72 0.57 0.47 0.41 0.34 0.29 0.32 0.34 0.32 0.32 0.37 0.49 0.70 1.04 1.39 1.51 1.41 1.16 0.97 0.82 0.72 0.67 0.64 0.50 0.35 0.31 0.34 0.36 0.34 0.36 0.39 0.43 0.43 0.44
0.57 0.71 0.85 0.90 0.83 0.76 0.66 0.53 0.43 0.38 0.36 0.37 0.37 0.39 0.47 0.58 0.71 0.86 1.17 1.41 1.44 1.25 1.06 0.93 0.82 0.80 0.74 0.61 0.47 0.34 0.29 0.32 0.34 0.36 0.42 0.45 0.50 0.49
0.59 0.70 0.85 0.96 0.97 0.94 0.90 0.79 0.68 0.60 0.53 0.50 0.55 0.56 0.61 0.67 0.70 0.79 1.00 1.20 1.20 1.08 0.99 0.97 0.96 0.93 0.86 0.82 0.68 0.45 0.35 0.32 0.32 0.40 0.49 0.51 0.52 0.57
0.44 0.61 0.77 0.94 1.06 1.10 1.13 1.07 0.95 0.85 0.76 0.73 0.75 0.72 0.70 0.75 0.76 0.78 0.92 1.06 1.07 1.02 0.97 0.90 0.98 1.07 1.01 0.85 0.69 0.56 0.44 0.37 0.38 0.47 0.54 0.55 0.51 0.52
0.29 0.46 0.62 0.77 0.94 1.07 1.11 1.07 0.99 0.97 0.97 0.96 0.95 0.91 0.85 0.84 0.87 0.85 0.87 0.98 1.05 1.02 1.02 0.99 0.98 1.00 0.96 0.72 0.51 0.48 0.52 0.49 0.52 0.56 0.59 0.57 0.51 0.50
0.26 0.41 0.54 0.67 0.82 0.99 1.05 1.05 1.07 1.10 1.10 1.06 1.07 1.08 1.04 0.98 0.97 0.95 0.91 0.92 1.01 1.08 1.08 1.06 0.99 0.90 0.81 0.72 0.63 0.52 0.51 0.62 0.68 0.65 0.64 0.66 0.60 0.59
0.33 0.39 0.47 0.58 0.76 0.94 1.07 1.12 1.15 1.14 1.13 1.14 1.14 1.15 1.17 1.11 1.01 1.00 1.04 1.03 1.01 1.06 1.01 0.89 0.87 0.97 1.04 1.07 0.92 0.65 0.53 0.55 0.66 0.71 0.75 0.82 0.75 0.70
0.48 0.52 0.55 0.62 0.79 0.96 1.09 1.18 1.23 1.20 1.16 1.17 1.18 1.18 1.18 1.16 1.06 1.05 1.13 1.11 0.99 0.93 0.93 0.96 1.11 1.26 1.24 1.13 0.88 0.69 0.63 0.65 0.68 0.72 0.75 0.80 0.79 0.69
0.64 0.61 0.56 0.60 0.76 0.92 1.03 1.13 1.23 1.21 1.15 1.13 1.19 1.24 1.17 1.12 1.07 1.08 1.12 1.17 1.13 1.06 1.10 1.13 1.19 1.23 1.19 1.15 1.06 0.89 0.76 0.75 0.77 0.72 0.61 0.57 0.55 0.54